Time,TemperatureF,DewpointF,PressureIn,WindDirection,WindDirectionDegrees,WindSpeedMPH,WindSpeedGustMPH,Humidity,HourlyPrecipIn,Conditions,Clouds,dailyrainin,SoftwareType,DateUTC
2013-02-07 00:00:00,64.8,62.0,30.01,East,81,0.0,4.0,91,0.00,,,0.00,weatherlink.com 1.10,2013-02-07 06:00:00,
2013-02-07 00:15:00,64.5,62.0,30.01,East,96,0.0,0.0,92,0.00,,,0.00,weatherlink.com 1.10,2013-02-07 06:15:00,
2013-02-07 00:30:00,64.4,62.0,30.00,ESE,110,1.0,5.0,92,0.00,,,0.00,weatherlink.com 1.10,2013-02-07 06:30:00,
2013-02-07 00:45:00,64.7,62.0,30.00,East,101,2.0,7.0,92,0.00,,,0.00,weatherlink.com 1.10,2013-02-07 06:45:00,
2013-02-07 01:00:00,64.7,62.0,30.00,East,94,0.0,3.0,92,0.00,,,0.00,weatherlink.com 1.10,2013-02-07 07:00:00,
2013-02-07 01:15:00,64.5,62.0,29.99,East,99,2.0,5.0,92,0.00,,,0.00,weatherlink.com 1.10,2013-02-07 07:15:00,
2013-02-07 01:30:00,64.4,62.0,29.96,SE,126,4.0,8.0,92,0.00,,,0.00,weatherlink.com 1.10,2013-02-07 07:30:00,
2013-02-07 01:45:00,64.2,62.0,29.95,East,92,0.0,6.0,92,0.00,,,0.00,weatherlink.com 1.10,2013-02-07 07:45:00,
2013-02-07 02:00:00,64.0,62.0,29.94,NE,49,0.0,1.0,93,0.01,,,0.01,weatherlink.com 1.10,2013-02-07 08:00:00,
2013-02-07 02:15:00,63.9,62.0,29.93,East,88,0.0,1.0,93,0.01,,,0.01,weatherlink.com 1.10,2013-02-07 08:15:00,
2013-02-07 02:30:00,63.9,62.0,29.94,ENE,77,4.0,8.0,94,0.01,,,0.01,weatherlink.com 1.10,2013-02-07 08:30:00,
2013-02-07 02:45:00,64.2,62.0,29.94,ESE,107,4.0,8.0,93,0.01,,,0.01,weatherlink.com 1.10,2013-02-07 08:45:00,
2013-02-07 03:00:00,64.2,62.0,29.95,East,98,0.0,7.0,93,0.00,,,0.01,weatherlink.com 1.10,2013-02-07 09:00:00,
2013-02-07 03:15:00,64.1,62.0,29.95,NE,45,0.0,1.0,94,0.00,,,0.01,weatherlink.com 1.10,2013-02-07 09:15:00,
2013-02-07 03:30:00,63.9,62.0,29.95,East,98,0.0,3.0,94,0.03,,,0.04,weatherlink.com 1.10,2013-02-07 09:30:00,
2013-02-07 03:45:00,63.6,62.0,29.93,NE,52,0.0,5.0,95,0.05,,,0.06,weatherlink.com 1.10,2013-02-07 09:45:00,
2013-02-07 04:00:00,63.5,62.0,29.93,ENE,74,0.0,0.0,95,0.07,,,0.08,weatherlink.com 1.10,2013-02-07 10:00:00,
2013-02-07 04:15:00,62.8,61.0,29.91,ESE,111,0.0,8.0,95,0.13,,,0.14,weatherlink.com 1.10,2013-02-07 10:15:00,
2013-02-07 04:30:00,62.6,61.0,29.91,East,86,0.0,5.0,95,0.13,,,0.17,weatherlink.com 1.10,2013-02-07 10:30:00,
2013-02-07 04:45:00,62.7,62.0,29.91,East,96,5.0,7.0,96,0.16,,,0.22,weatherlink.com 1.10,2013-02-07 10:45:00,
2013-02-07 05:00:00,62.7,62.0,29.88,East,89,6.0,13.0,96,0.16,,,0.25,weatherlink.com 1.10,2013-02-07 11:00:00,
2013-02-07 05:15:00,62.6,62.0,29.88,East,84,3.0,12.0,96,0.14,,,0.28,weatherlink.com 1.10,2013-02-07 11:15:00,
2013-02-07 05:30:00,62.3,61.0,29.84,East,95,7.0,14.0,96,0.14,,,0.31,weatherlink.com 1.10,2013-02-07 11:30:00,
2013-02-07 05:45:00,61.9,61.0,29.84,ESE,109,5.0,11.0,96,0.12,,,0.34,weatherlink.com 1.10,2013-02-07 11:45:00,
2013-02-07 06:00:00,62.1,61.0,29.84,ENE,57,4.0,14.0,96,0.10,,,0.35,weatherlink.com 1.10,2013-02-07 12:00:00,
2013-02-07 06:15:00,62.3,61.0,29.82,NE,42,8.0,16.0,96,0.08,,,0.36,weatherlink.com 1.10,2013-02-07 12:15:00,
2013-02-07 06:30:00,62.4,61.0,29.79,East,82,13.0,17.0,96,0.12,,,0.43,weatherlink.com 1.10,2013-02-07 12:30:00,
2013-02-07 06:46:00,62.5,61.0,29.77,East,90,8.0,21.0,96,0.17,,,0.51,weatherlink.com 1.10,2013-02-07 12:46:00,
2013-02-07 07:01:00,62.7,62.0,29.82,ENE,63,3.0,15.0,96,0.36,,,0.71,weatherlink.com 1.10,2013-02-07 13:01:00,
2013-02-07 07:16:00,62.6,62.0,29.82,East,96,8.0,10.0,96,0.68,,,1.04,weatherlink.com 1.10,2013-02-07 13:16:00,
2013-02-07 07:31:00,62.8,62.0,29.81,East,82,6.0,11.0,96,0.63,,,1.07,weatherlink.com 1.10,2013-02-07 13:31:00,
2013-02-07 07:46:00,63.6,63.0,29.80,East,89,2.0,8.0,97,0.69,,,1.20,weatherlink.com 1.10,2013-02-07 13:46:00,
2013-02-07 08:01:00,64.3,64.0,29.80,ESE,114,0.0,0.0,97,0.55,,,1.27,weatherlink.com 1.10,2013-02-07 14:01:00,
2013-02-07 08:16:00,64.0,63.0,29.80,NE,49,0.0,3.0,96,0.23,,,1.28,weatherlink.com 1.10,2013-02-07 14:16:00,
2013-02-07 08:31:00,66.1,65.0,29.80,West,267,4.0,13.0,97,0.20,,,1.28,weatherlink.com 1.10,2013-02-07 14:31:00,
2013-02-07 08:46:00,63.5,62.0,29.83,NE,49,2.0,19.0,96,0.76,,,1.96,weatherlink.com 1.10,2013-02-07 14:46:00,
2013-02-07 09:01:00,63.2,62.0,29.84,NW,304,0.0,8.0,96,0.76,,,2.03,weatherlink.com 1.10,2013-02-07 15:01:00,
2013-02-07 09:16:00,63.3,62.0,29.84,NNW,329,0.0,9.0,96,0.75,,,2.03,weatherlink.com 1.10,2013-02-07 15:16:00,
2013-02-07 09:31:00,62.8,62.0,29.85,NNW,336,1.0,11.0,96,0.76,,,2.04,weatherlink.com 1.10,2013-02-07 15:31:00,
2013-02-07 09:46:00,62.1,61.0,29.84,North,355,0.0,8.0,95,0.07,,,2.04,weatherlink.com 1.10,2013-02-07 15:46:00,
2013-02-07 10:01:00,62.9,62.0,29.84,NNW,342,3.0,15.0,95,0.01,,,2.04,weatherlink.com 1.10,2013-02-07 16:01:00,
2013-02-07 10:16:00,64.6,62.0,29.84,NW,313,6.0,14.0,92,0.01,,,2.04,weatherlink.com 1.10,2013-02-07 16:16:00,
2013-02-07 10:31:00,66.0,62.0,29.84,NE,49,4.0,13.0,87,0.00,,,2.04,weatherlink.com 1.10,2013-02-07 16:31:00,
2013-02-07 10:46:00,67.4,61.0,29.84,NNW,344,6.0,12.0,81,0.00,,,2.04,weatherlink.com 1.10,2013-02-07 16:46:00,
2013-02-07 11:01:00,68.4,62.0,29.84,North,11,4.0,10.0,80,0.00,,,2.04,weatherlink.com 1.10,2013-02-07 17:01:00,
2013-02-07 11:16:00,69.3,63.0,29.84,NE,53,7.0,10.0,79,0.00,,,2.04,weatherlink.com 1.10,2013-02-07 17:16:00,
2013-02-07 11:31:00,69.1,62.0,29.84,NW,319,1.0,10.0,78,0.00,,,2.04,weatherlink.com 1.10,2013-02-07 17:31:00,
2013-02-07 11:46:00,70.1,63.0,29.84,North,5,5.0,9.0,77,0.00,,,2.04,weatherlink.com 1.10,2013-02-07 17:46:00,
2013-02-07 12:01:00,70.8,62.0,29.84,NNE,15,6.0,12.0,74,0.00,,,2.04,weatherlink.com 1.10,2013-02-07 18:01:00,
2013-02-07 12:16:00,71.8,63.0,29.83,NE,46,3.0,9.0,73,0.00,,,2.04,weatherlink.com 1.10,2013-02-07 18:16:00,
2013-02-07 12:31:00,72.5,63.0,29.82,NE,54,4.0,10.0,73,0.00,,,2.04,weatherlink.com 1.10,2013-02-07 18:31:00,
2013-02-07 12:46:00,72.1,63.0,29.82,North,5,4.0,9.0,73,0.00,,,2.04,weatherlink.com 1.10,2013-02-07 18:46:00,
2013-02-07 13:01:00,72.5,63.0,29.83,NNW,340,5.0,7.0,72,0.00,,,2.04,weatherlink.com 1.10,2013-02-07 19:01:00,
2013-02-07 13:16:00,73.6,62.0,29.83,WNW,286,3.0,9.0,67,0.00,,,2.04,weatherlink.com 1.10,2013-02-07 19:16:00,
2013-02-07 13:31:00,74.6,62.0,29.83,WSW,252,2.0,8.0,64,0.00,,,2.04,weatherlink.com 1.10,2013-02-07 19:31:00,
2013-02-07 13:46:00,74.8,61.0,29.83,NW,313,4.0,7.0,63,0.00,,,2.04,weatherlink.com 1.10,2013-02-07 19:46:00,
2013-02-07 14:01:00,75.2,61.0,29.82,North,10,0.0,7.0,61,0.00,,,2.04,weatherlink.com 1.10,2013-02-07 20:01:00,
2013-02-07 14:17:00,76.2,62.0,29.82,NNW,335,3.0,6.0,61,0.00,,,2.04,weatherlink.com 1.10,2013-02-07 20:17:00,
2013-02-07 14:32:00,76.9,61.0,29.82,North,360,5.0,8.0,58,0.00,,,2.04,weatherlink.com 1.10,2013-02-07 20:32:00,
2013-02-07 14:47:00,77.0,60.0,29.82,WNW,284,4.0,10.0,57,0.00,,,2.04,weatherlink.com 1.10,2013-02-07 20:47:00,
2013-02-07 15:02:00,77.0,60.0,29.82,North,355,4.0,12.0,56,0.00,,,2.04,weatherlink.com 1.10,2013-02-07 21:02:00,
2013-02-07 15:17:00,76.1,60.0,29.82,NW,307,6.0,12.0,57,0.00,,,2.04,weatherlink.com 1.10,2013-02-07 21:17:00,
2013-02-07 15:32:00,76.2,61.0,29.83,NW,326,2.0,8.0,59,0.00,,,2.04,weatherlink.com 1.10,2013-02-07 21:32:00,
2013-02-07 15:47:00,76.2,61.0,29.83,NW,304,3.0,9.0,59,0.00,,,2.04,weatherlink.com 1.10,2013-02-07 21:47:00,
2013-02-07 16:02:00,75.8,60.0,29.84,WSW,239,6.0,11.0,59,0.00,,,2.04,weatherlink.com 1.10,2013-02-07 22:02:00,
2013-02-07 16:17:00,75.8,60.0,29.84,SW,235,3.0,12.0,59,0.00,,,2.04,weatherlink.com 1.10,2013-02-07 22:17:00,
2013-02-07 16:32:00,73.3,60.0,29.84,WSW,240,3.0,12.0,63,0.00,,,2.04,weatherlink.com 1.10,2013-02-07 22:32:00,
2013-02-07 16:47:00,71.8,60.0,29.85,WNW,290,4.0,11.0,66,0.00,,,2.04,weatherlink.com 1.10,2013-02-07 22:47:00,
2013-02-07 17:02:00,70.2,60.0,29.86,West,261,4.0,13.0,70,0.00,,,2.04,weatherlink.com 1.10,2013-02-07 23:02:00,
2013-02-07 17:17:00,69.1,61.0,29.86,SW,233,5.0,8.0,74,0.00,,,2.04,weatherlink.com 1.10,2013-02-07 23:17:00,
2013-02-07 17:32:00,68.1,61.0,29.86,WNW,294,4.0,8.0,77,0.00,,,2.04,weatherlink.com 1.10,2013-02-07 23:32:00,
2013-02-07 17:47:00,67.2,61.0,29.87,WSW,254,3.0,10.0,79,0.00,,,2.04,weatherlink.com 1.10,2013-02-07 23:47:00,
2013-02-07 18:02:00,66.1,61.0,29.87,West,262,3.0,10.0,82,0.00,,,2.04,weatherlink.com 1.10,2013-02-08 00:02:00,
2013-02-07 18:17:00,65.2,61.0,29.88,West,265,6.0,10.0,85,0.00,,,2.04,weatherlink.com 1.10,2013-02-08 00:17:00,
2013-02-07 18:32:00,64.6,61.0,29.89,WSW,257,3.0,7.0,87,0.00,,,2.04,weatherlink.com 1.10,2013-02-08 00:32:00,
2013-02-07 18:47:00,64.2,61.0,29.89,WNW,300,3.0,5.0,88,0.00,,,2.04,weatherlink.com 1.10,2013-02-08 00:47:00,
2013-02-07 19:02:00,63.9,60.0,29.90,WNW,288,0.0,3.0,88,0.00,,,2.04,weatherlink.com 1.10,2013-02-08 01:02:00,
2013-02-07 19:17:00,64.0,60.0,29.90,WNW,291,0.0,4.0,88,0.00,,,2.04,weatherlink.com 1.10,2013-02-08 01:17:00,
2013-02-07 19:32:00,63.7,60.0,29.90,WNW,291,0.0,0.0,88,0.00,,,2.04,weatherlink.com 1.10,2013-02-08 01:32:00,
2013-02-07 19:47:00,63.1,60.0,29.90,WNW,291,0.0,0.0,89,0.00,,,2.04,weatherlink.com 1.10,2013-02-08 01:47:00,
2013-02-07 20:02:00,62.4,60.0,29.91,WNW,291,0.0,0.0,90,0.00,,,2.04,weatherlink.com 1.10,2013-02-08 02:02:00,
2013-02-07 20:17:00,61.7,59.0,29.91,WNW,291,0.0,0.0,90,0.00,,,2.04,weatherlink.com 1.10,2013-02-08 02:17:00,
2013-02-07 20:32:00,60.9,58.0,29.91,WNW,291,0.0,0.0,91,0.00,,,2.04,weatherlink.com 1.10,2013-02-08 02:32:00,
2013-02-07 20:47:00,60.4,58.0,29.92,WNW,291,0.0,0.0,92,0.00,,,2.04,weatherlink.com 1.10,2013-02-08 02:47:00,
2013-02-07 21:02:00,59.9,58.0,29.92,WNW,291,0.0,0.0,93,0.00,,,2.04,weatherlink.com 1.10,2013-02-08 03:02:00,
2013-02-07 21:17:00,59.8,58.0,29.92,WNW,291,0.0,0.0,93,0.00,,,2.04,weatherlink.com 1.10,2013-02-08 03:17:00,
2013-02-07 21:32:00,60.1,58.0,29.92,WNW,300,0.0,2.0,93,0.00,,,2.04,weatherlink.com 1.10,2013-02-08 03:32:00,
2013-02-07 21:47:00,60.3,58.0,29.92,WNW,300,0.0,0.0,92,0.00,,,2.04,weatherlink.com 1.10,2013-02-08 03:47:00,
2013-02-07 22:02:00,60.3,58.0,29.93,WNW,300,0.0,1.0,92,0.00,,,2.04,weatherlink.com 1.10,2013-02-08 04:02:00,
2013-02-07 22:17:00,60.2,58.0,29.93,WNW,300,0.0,2.0,91,0.00,,,2.04,weatherlink.com 1.10,2013-02-08 04:17:00,
2013-02-07 22:32:00,59.8,57.0,29.93,WNW,300,0.0,0.0,91,0.00,,,2.04,weatherlink.com 1.10,2013-02-08 04:32:00,
2013-02-07 22:47:00,59.1,57.0,29.93,WNW,300,0.0,0.0,91,0.00,,,2.04,weatherlink.com 1.10,2013-02-08 04:47:00,
2013-02-07 23:02:00,58.5,56.0,29.94,WNW,300,0.0,0.0,92,0.00,,,2.04,weatherlink.com 1.10,2013-02-08 05:02:00,
2013-02-07 23:17:00,58.2,56.0,29.94,WNW,300,0.0,0.0,92,0.00,,,2.04,weatherlink.com 1.10,2013-02-08 05:17:00,
2013-02-07 23:32:00,57.8,56.0,29.94,WNW,300,0.0,0.0,93,0.00,,,2.04,weatherlink.com 1.10,2013-02-08 05:32:00,
2013-02-07 23:47:00,57.7,56.0,29.94,WNW,300,0.0,0.0,93,0.00,,,2.04,weatherlink.com 1.10,2013-02-08 05:47:00,